Torna al catalogo

TITAN 3C TRANSTAGE DEB

AttivoHEO
NORAD 19592·DEBRIS·🇺🇸 United States

Lanciato Dec 21, 1965 da Cape Canaveral Space Force Station

Loading…

Prossimi Passaggi (prossime 24 ore)

TLE

AggiornatoSource: Space-Track

Epoca: Sep 13, 2026, 14:26 UTC

1 19592U 65108AA  26256.60158726 -.00000180  00000-0 -92970-3 0  9993
2 19592  26.5793 151.1379 6720166 328.2510 271.3904  2.84502977347853

Traccia TITAN 3C TRANSTAGE DEB in tempo reale con AllMySat

Download on the App Store